Location: *
(48.7358°N, 0.3111°E)
Time: 10:00:08
(UTC+00:00)

Cosmos 676 Rocket - Pass Details

Date: 22 October 2019
Orbit: 755 x 783 km, 74.0° (Epoch: 19 November)

Event Time Altitude Azimuth Distance (km) Brightness Sun altitude
Exits shadow 04:53:55 13° 219° (SW) 2,139 5.9 -16.3°
Maximum altitude 04:58:38 58° 297° (WNW) 894 4.0 -15.6°
Drops below altitude 10° 05:03:49 10° 17° (NNE) 2,311 6.7 -14.7°
Sets 05:06:14 0° 21° (NNE) 3,237 7.5 -14.3°
